Time,TemperatureF,DewpointF,PressureIn,WindDirection,WindDirectionDegrees,WindSpeedMPH,WindSpeedGustMPH,Humidity,HourlyPrecipIn,Conditions,Clouds,dailyrainin,SolarRadiationWatts/m^2,SoftwareType,DateUTC
2013-01-17 00:00:00,25.0,23.5,29.77,WSW,241,2.3,0.0,94,0.00,OVC,FEW,0.00,0.0,WeatherDisplay:10.37,2013-01-17 05:00:00,
2013-01-17 00:01:00,25.0,23.5,29.77,WSW,241,2.3,0.0,94,0.00,OVC,FEW,0.00,0.0,WeatherDisplay:10.37,2013-01-17 05:01:00,
2013-01-17 00:02:00,25.0,23.5,29.77,SSW,210,4.0,4.0,94,0.00,OVC,FEW,0.00,0.0,WeatherDisplay:10.37,2013-01-17 05:02:00,
2013-01-17 00:04:00,25.0,23.5,29.77,SW,219,2.3,2.3,94,0.00,OVC,FEW,0.00,0.0,WeatherDisplay:10.37,2013-01-17 05:04:00,
2013-01-17 00:09:00,25.0,23.5,29.77,SW,235,4.0,4.0,94,0.00,OVC,FEW,0.00,0.0,WeatherDisplay:10.37,2013-01-17 05:09:00,
2013-01-17 00:14:00,25.0,23.5,29.76,West,269,4.0,4.0,94,0.00,OVC,FEW,0.00,0.0,WeatherDisplay:10.37,2013-01-17 05:14:00,
2013-01-17 00:19:00,24.9,23.7,29.76,WNW,302,4.6,4.6,95,0.00,OVC,FEW,0.00,0.0,WeatherDisplay:10.37,2013-01-17 05:19:00,
2013-01-17 00:24:00,24.9,23.7,29.77,WSW,242,3.5,3.5,95,0.00,OVC,FEW,0.00,0.0,WeatherDisplay:10.37,2013-01-17 05:24:00,
2013-01-17 00:29:00,24.9,23.7,29.77,SW,231,3.0,3.0,95,0.00,OVC,FEW,0.00,0.0,WeatherDisplay:10.37,2013-01-17 05:29:00,
2013-01-17 00:34:00,24.9,23.7,29.77,WNW,287,5.0,5.0,95,0.00,OVC,FEW,0.00,0.0,WeatherDisplay:10.37,2013-01-17 05:34:00,
2013-01-17 00:40:00,24.9,23.7,29.77,ESE,123,2.3,2.3,95,0.00,OVC,FEW,0.00,0.0,WeatherDisplay:10.37,2013-01-17 05:40:00,
2013-01-17 00:45:00,25.0,23.5,29.77,South,180,2.0,2.0,94,0.00,OVC,FEW,0.00,0.0,WeatherDisplay:10.37,2013-01-17 05:45:00,
2013-01-17 00:50:00,25.0,23.5,29.77,NW,313,0.0,0.0,94,0.00,OVC,FEW,0.00,0.0,WeatherDisplay:10.37,2013-01-17 05:50:00,
2013-01-17 00:55:00,25.0,23.5,29.78,WSW,255,1.1,0.0,94,0.00,OVC,FEW,0.00,0.0,WeatherDisplay:10.37,2013-01-17 05:55:00,
2013-01-17 01:00:00,25.0,23.5,29.78,West,259,0.0,0.0,94,0.00,OVC,FEW,0.00,0.0,WeatherDisplay:10.37,2013-01-17 06:00:00,
2013-01-17 01:05:00,24.9,23.4,29.77,SSW,200,2.0,2.0,94,0.00,OVC,FEW,0.00,0.0,WeatherDisplay:10.37,2013-01-17 06:05:00,
2013-01-17 01:10:00,24.8,23.3,29.77,SSW,199,1.1,1.1,94,0.00,OVC,FEW,0.00,0.0,WeatherDisplay:10.37,2013-01-17 06:10:00,
2013-01-17 01:15:00,24.8,23.3,29.77,SSW,204,2.3,2.3,94,0.00,OVC,FEW,0.00,0.0,WeatherDisplay:10.37,2013-01-17 06:15:00,
2013-01-17 01:20:00,24.8,23.3,29.77,WSW,247,1.1,0.0,94,0.00,OVC,FEW,0.00,0.0,WeatherDisplay:10.37,2013-01-17 06:20:00,
2013-01-17 01:25:00,24.7,23.2,29.76,South,188,1.1,0.0,94,0.00,OVC,FEW,0.00,0.0,WeatherDisplay:10.37,2013-01-17 06:25:00,
2013-01-17 01:30:00,24.7,23.0,29.76,SW,218,1.1,0.0,93,0.00,OVC,FEW,0.00,0.0,WeatherDisplay:10.37,2013-01-17 06:30:00,
2013-01-17 01:35:00,24.7,23.0,29.76,SSW,205,1.1,0.0,93,0.00,OVC,FEW,0.00,0.0,WeatherDisplay:10.37,2013-01-17 06:35:00,
2013-01-17 01:40:00,24.7,23.0,29.76,SW,232,5.0,5.0,93,0.00,OVC,FEW,0.00,0.0,WeatherDisplay:10.37,2013-01-17 06:40:00,
2013-01-17 01:45:00,24.6,22.9,29.76,West,274,2.0,2.0,93,0.00,OVC,FEW,0.00,0.0,WeatherDisplay:10.37,2013-01-17 06:45:00,
2013-01-17 01:50:00,24.5,22.8,29.76,WSW,246,1.0,0.0,93,0.00,OVC,FEW,0.00,0.0,WeatherDisplay:10.37,2013-01-17 06:50:00,
2013-01-17 01:55:00,24.3,22.6,29.76,SW,232,0.0,0.0,93,0.00,OVC,FEW,0.00,0.0,WeatherDisplay:10.37,2013-01-17 06:55:00,
2013-01-17 02:00:00,24.1,22.4,29.75,SW,232,0.0,0.0,93,0.00,OVC,FEW,0.00,0.0,WeatherDisplay:10.37,2013-01-17 07:00:00,
2013-01-17 02:06:00,23.9,22.2,29.75,SW,232,1.1,0.0,93,0.00,BKN,FEW,0.00,0.0,WeatherDisplay:10.37,2013-01-17 07:06:00,
2013-01-17 02:11:00,23.7,22.0,29.75,WSW,244,2.3,0.0,93,0.00,BKN,FEW,0.00,0.0,WeatherDisplay:10.37,2013-01-17 07:11:00,
2013-01-17 02:16:00,23.6,21.9,29.75,SW,230,4.0,4.0,93,0.00,BKN,FEW,0.00,0.0,WeatherDisplay:10.37,2013-01-17 07:16:00,
2013-01-17 02:21:00,23.5,22.0,29.75,WSW,246,2.3,2.3,94,0.00,BKN,FEW,0.00,0.0,WeatherDisplay:10.37,2013-01-17 07:21:00,
2013-01-17 02:26:00,23.4,21.9,29.75,WSW,254,2.3,2.3,94,0.00,BKN,FEW,0.00,0.0,WeatherDisplay:10.37,2013-01-17 07:26:00,
2013-01-17 02:31:00,23.3,21.8,29.75,SW,229,0.0,0.0,94,0.00,BKN,FEW,0.00,0.0,WeatherDisplay:10.37,2013-01-17 07:31:00,
2013-01-17 02:36:00,23.3,21.8,29.75,SSW,212,2.3,2.3,94,0.00,BKN,FEW,0.00,0.0,WeatherDisplay:10.37,2013-01-17 07:36:00,
2013-01-17 02:41:00,23.4,21.9,29.75,SSW,212,0.0,0.0,94,0.00,BKN,FEW,0.00,0.0,WeatherDisplay:10.37,2013-01-17 07:41:00,
2013-01-17 02:46:00,23.4,21.9,29.74,WSW,252,1.1,1.1,94,0.00,BKN,FEW,0.00,0.0,WeatherDisplay:10.37,2013-01-17 07:46:00,
2013-01-17 02:51:00,23.4,21.9,29.74,South,173,3.5,3.5,94,0.00,BKN,FEW,0.00,0.0,WeatherDisplay:10.37,2013-01-17 07:51:00,
2013-01-17 02:56:00,23.5,22.0,29.75,South,174,1.0,0.0,94,0.00,BKN,FEW,0.00,0.0,WeatherDisplay:10.37,2013-01-17 07:56:00,
2013-01-17 03:01:00,23.5,22.0,29.74,South,177,2.3,2.3,94,0.00,BKN,FEW,0.00,0.0,WeatherDisplay:10.37,2013-01-17 08:01:00,
2013-01-17 03:06:00,23.7,22.2,29.74,South,178,0.0,0.0,94,0.00,BKN,FEW,0.00,0.0,WeatherDisplay:10.37,2013-01-17 08:06:00,
2013-01-17 03:11:00,23.7,22.2,29.74,West,269,1.1,1.1,94,0.00,BKN,FEW,0.00,0.0,WeatherDisplay:10.37,2013-01-17 08:11:00,
2013-01-17 03:16:00,23.7,22.2,29.74,South,182,3.5,3.5,94,0.00,BKN,FEW,0.00,0.0,WeatherDisplay:10.37,2013-01-17 08:16:00,
2013-01-17 03:21:00,23.8,22.3,29.74,SW,224,0.0,3.0,94,0.00,BKN,FEW,0.00,0.0,WeatherDisplay:10.37,2013-01-17 08:21:00,
2013-01-17 03:26:00,23.9,22.2,29.73,SW,232,6.9,6.9,93,0.00,BKN,FEW,0.00,0.0,WeatherDisplay:10.37,2013-01-17 08:26:00,
2013-01-17 03:31:00,24.0,22.3,29.73,SW,231,2.3,0.0,93,0.00,BKN,FEW,0.00,0.0,WeatherDisplay:10.37,2013-01-17 08:31:00,
2013-01-17 03:36:00,24.0,22.5,29.73,SW,220,1.1,1.1,94,0.00,BKN,FEW,0.00,0.0,WeatherDisplay:10.37,2013-01-17 08:36:00,
2013-01-17 03:41:00,24.1,22.6,29.74,SW,219,2.0,2.0,94,0.00,BKN,FEW,0.00,0.0,WeatherDisplay:10.37,2013-01-17 08:41:00,
2013-01-17 03:46:00,24.1,22.4,29.74,SW,225,3.5,3.5,93,0.00,BKN,FEW,0.00,0.0,WeatherDisplay:10.37,2013-01-17 08:46:00,
2013-01-17 03:51:00,24.1,22.4,29.74,SW,225,0.0,0.0,93,0.00,BKN,FEW,0.00,0.0,WeatherDisplay:10.37,2013-01-17 08:51:00,
2013-01-17 03:56:00,24.1,22.4,29.74,North,11,2.3,2.3,93,0.00,BKN,FEW,0.00,0.0,WeatherDisplay:10.37,2013-01-17 08:56:00,
2013-01-17 04:02:00,24.1,22.6,29.74,SW,221,1.1,1.1,94,0.00,OVC,FEW,0.00,0.0,WeatherDisplay:10.37,2013-01-17 09:02:00,
2013-01-17 04:07:00,24.2,22.7,29.74,SW,219,1.1,1.1,94,0.00,OVC,FEW,0.00,0.0,WeatherDisplay:10.37,2013-01-17 09:07:00,
2013-01-17 04:12:00,24.2,22.7,29.74,SW,227,1.1,0.0,94,0.00,OVC,FEW,0.00,0.0,WeatherDisplay:10.37,2013-01-17 09:12:00,
2013-01-17 04:17:00,24.2,22.7,29.73,NE,46,0.0,0.0,94,0.00,OVC,FEW,0.00,0.0,WeatherDisplay:10.37,2013-01-17 09:17:00,
2013-01-17 04:22:00,24.2,22.7,29.74,SW,222,3.5,3.5,94,0.00,OVC,FEW,0.00,0.0,WeatherDisplay:10.37,2013-01-17 09:22:00,
2013-01-17 04:27:00,24.3,22.8,29.74,SW,228,2.3,2.3,94,0.00,OVC,FEW,0.00,0.0,WeatherDisplay:10.37,2013-01-17 09:27:00,
2013-01-17 04:32:00,24.3,22.8,29.73,SSE,155,1.1,1.1,94,0.00,OVC,FEW,0.00,0.0,WeatherDisplay:10.37,2013-01-17 09:32:00,
2013-01-17 04:37:00,24.3,22.8,29.73,NNW,336,1.1,1.1,94,0.00,OVC,FEW,0.00,0.0,WeatherDisplay:10.37,2013-01-17 09:37:00,
2013-01-17 04:42:00,24.3,22.8,29.74,WNW,292,3.5,3.5,94,0.00,OVC,FEW,0.00,0.0,WeatherDisplay:10.37,2013-01-17 09:42:00,
2013-01-17 04:47:00,24.3,22.8,29.74,SW,232,4.6,4.6,94,0.00,OVC,FEW,0.00,0.0,WeatherDisplay:10.37,2013-01-17 09:47:00,
2013-01-17 04:52:00,24.3,22.8,29.74,WNW,297,4.0,4.0,94,0.00,OVC,FEW,0.00,0.0,WeatherDisplay:10.37,2013-01-17 09:52:00,
2013-01-17 04:57:00,24.3,22.8,29.74,SW,219,3.5,3.5,94,0.00,OVC,FEW,0.00,0.0,WeatherDisplay:10.37,2013-01-17 09:57:00,
2013-01-17 05:02:00,24.3,22.8,29.74,South,189,10.0,10.0,94,0.00,OVC,FEW,0.00,0.0,WeatherDisplay:10.37,2013-01-17 10:02:00,
2013-01-17 05:07:00,24.2,22.7,29.74,NNE,17,3.5,3.5,94,0.00,OVC,FEW,0.00,0.0,WeatherDisplay:10.37,2013-01-17 10:07:00,
2013-01-17 05:12:00,24.2,22.7,29.74,SSW,196,3.5,3.5,94,0.00,OVC,FEW,0.00,0.0,WeatherDisplay:10.37,2013-01-17 10:12:00,
2013-01-17 05:17:00,24.2,22.7,29.75,East,81,4.0,4.0,94,0.00,OVC,FEW,0.00,0.0,WeatherDisplay:10.37,2013-01-17 10:17:00,
2013-01-17 05:22:00,24.2,22.7,29.75,SSE,152,2.3,2.3,94,0.00,OVC,FEW,0.00,0.0,WeatherDisplay:10.37,2013-01-17 10:22:00,
2013-01-17 05:27:00,24.1,22.6,29.75,South,190,3.5,3.5,94,0.00,OVC,FEW,0.00,0.0,WeatherDisplay:10.37,2013-01-17 10:27:00,
2013-01-17 05:32:00,24.2,22.7,29.75,SE,144,2.0,2.0,94,0.00,OVC,FEW,0.00,0.0,WeatherDisplay:10.37,2013-01-17 10:32:00,
2013-01-17 05:37:00,24.2,22.7,29.75,WSW,243,3.0,3.0,94,0.00,OVC,FEW,0.00,0.0,WeatherDisplay:10.37,2013-01-17 10:37:00,
2013-01-17 05:42:00,24.2,22.7,29.75,NE,40,0.0,0.0,94,0.00,OVC,FEW,0.00,0.0,WeatherDisplay:10.37,2013-01-17 10:42:00,
2013-01-17 05:47:00,24.2,22.7,29.75,SW,223,2.3,2.3,94,0.00,OVC,FEW,0.00,0.0,WeatherDisplay:10.37,2013-01-17 10:47:00,
2013-01-17 05:52:00,24.2,22.7,29.75,WSW,252,3.5,3.5,94,0.00,OVC,FEW,0.00,0.0,WeatherDisplay:10.37,2013-01-17 10:52:00,
2013-01-17 05:57:00,24.2,22.7,29.75,SW,219,4.6,4.6,94,0.00,OVC,FEW,0.00,0.0,WeatherDisplay:10.37,2013-01-17 10:57:00,
2013-01-17 06:02:00,24.2,22.7,29.75,West,265,5.0,5.0,94,0.00,BKN,FEW,0.00,0.0,WeatherDisplay:10.37,2013-01-17 11:02:00,
2013-01-17 06:07:00,24.2,22.7,29.75,NE,35,1.1,0.0,94,0.00,BKN,FEW,0.00,0.0,WeatherDisplay:10.37,2013-01-17 11:07:00,
2013-01-17 06:12:00,24.3,22.8,29.75,SSE,166,2.3,0.0,94,0.00,BKN,FEW,0.00,0.0,WeatherDisplay:10.37,2013-01-17 11:12:00,
2013-01-17 06:18:00,24.3,22.8,29.75,WNW,292,6.0,6.0,94,0.00,BKN,FEW,0.00,0.0,WeatherDisplay:10.37,2013-01-17 11:18:00,
2013-01-17 06:23:00,24.3,22.8,29.75,WSW,245,2.3,2.3,94,0.00,BKN,FEW,0.00,0.0,WeatherDisplay:10.37,2013-01-17 11:23:00,
2013-01-17 06:28:00,24.3,22.8,29.76,SW,229,3.0,3.0,94,0.00,BKN,FEW,0.00,0.0,WeatherDisplay:10.37,2013-01-17 11:28:00,
2013-01-17 06:33:00,24.3,22.8,29.76,SSW,198,3.5,3.5,94,0.00,BKN,FEW,0.00,0.0,WeatherDisplay:10.37,2013-01-17 11:33:00,
2013-01-17 06:38:00,24.4,22.9,29.76,SSW,197,2.0,2.0,94,0.00,BKN,FEW,0.00,0.0,WeatherDisplay:10.37,2013-01-17 11:38:00,
2013-01-17 06:43:00,24.4,22.9,29.76,SSW,209,0.0,0.0,94,0.00,BKN,FEW,0.00,0.0,WeatherDisplay:10.37,2013-01-17 11:43:00,
2013-01-17 06:48:00,24.4,22.9,29.76,West,277,1.1,0.0,94,0.00,BKN,FEW,0.00,0.0,WeatherDisplay:10.37,2013-01-17 11:48:00,
2013-01-17 06:53:00,24.4,22.9,29.76,SSW,202,4.0,4.0,94,0.00,BKN,FEW,0.00,0.0,WeatherDisplay:10.37,2013-01-17 11:53:00,
2013-01-17 06:58:00,24.4,22.9,29.76,West,261,5.0,5.0,94,0.00,BKN,FEW,0.00,0.0,WeatherDisplay:10.37,2013-01-17 11:58:00,
2013-01-17 07:03:00,24.4,22.9,29.77,South,179,2.0,2.0,94,0.00,OVC,FEW,0.00,0.0,WeatherDisplay:10.37,2013-01-17 12:03:00,
2013-01-17 07:08:00,24.5,23.0,29.76,NE,42,3.5,3.5,94,0.00,OVC,FEW,0.00,0.0,WeatherDisplay:10.37,2013-01-17 12:08:00,
2013-01-17 07:13:00,24.6,23.1,29.76,WNW,292,6.0,6.0,94,0.00,OVC,FEW,0.00,0.0,WeatherDisplay:10.37,2013-01-17 12:13:00,
2013-01-17 07:18:00,24.7,23.2,29.77,NE,41,2.3,2.3,94,0.00,OVC,FEW,0.00,0.0,WeatherDisplay:10.37,2013-01-17 12:18:00,
2013-01-17 07:23:00,24.8,23.3,29.77,SSW,210,3.0,3.0,94,0.00,OVC,FEW,0.00,0.0,WeatherDisplay:10.37,2013-01-17 12:23:00,
2013-01-17 07:28:00,24.9,23.4,29.77,WSW,249,3.5,3.5,94,0.00,OVC,FEW,0.00,0.0,WeatherDisplay:10.37,2013-01-17 12:28:00,
2013-01-17 07:33:00,25.0,23.5,29.77,ESE,117,5.0,5.0,94,0.00,OVC,FEW,0.00,0.0,WeatherDisplay:10.37,2013-01-17 12:33:00,
2013-01-17 07:38:00,25.1,23.6,29.77,NNE,28,4.6,4.6,94,0.00,OVC,FEW,0.00,0.0,WeatherDisplay:10.37,2013-01-17 12:38:00,
2013-01-17 07:43:00,25.1,23.6,29.77,SW,215,1.1,0.0,94,0.00,OVC,FEW,0.00,0.0,WeatherDisplay:10.37,2013-01-17 12:43:00,
2013-01-17 07:48:00,25.2,23.7,29.77,NW,311,9.2,9.2,94,0.00,OVC,FEW,0.00,0.0,WeatherDisplay:10.37,2013-01-17 12:48:00,
2013-01-17 07:53:00,25.2,23.7,29.78,WSW,257,5.0,5.0,94,0.00,OVC,FEW,0.00,0.0,WeatherDisplay:10.37,2013-01-17 12:53:00,
2013-01-17 07:58:00,25.2,23.7,29.78,East,98,5.0,5.0,94,0.00,OVC,FEW,0.00,5.0,WeatherDisplay:10.37,2013-01-17 12:58:00,
2013-01-17 08:03:00,25.2,23.7,29.78,East,98,2.3,2.3,94,0.00,OVC,FEW,0.00,7.0,WeatherDisplay:10.37,2013-01-17 13:03:00,
2013-01-17 08:08:00,25.2,23.7,29.79,SE,134,3.5,3.5,94,0.00,OVC,FEW,0.00,7.0,WeatherDisplay:10.37,2013-01-17 13:08:00,
2013-01-17 08:13:00,25.3,23.8,29.79,SW,217,9.2,9.2,94,0.00,OVC,FEW,0.00,9.0,WeatherDisplay:10.37,2013-01-17 13:13:00,
2013-01-17 08:18:00,25.3,23.8,29.80,NE,38,7.0,7.0,94,0.00,OVC,FEW,0.00,0.0,WeatherDisplay:10.37,2013-01-17 13:18:00,
2013-01-17 08:23:00,25.3,23.6,29.79,SE,146,3.5,3.5,93,0.00,OVC,FEW,0.00,5.0,WeatherDisplay:10.37,2013-01-17 13:23:00,
2013-01-17 08:28:00,25.3,23.6,29.80,SSW,211,10.4,10.4,93,0.00,OVC,FEW,0.00,14.0,WeatherDisplay:10.37,2013-01-17 13:28:00,
2013-01-17 08:33:00,25.3,23.6,29.80,West,275,10.4,10.4,93,0.00,OVC,FEW,0.00,16.0,WeatherDisplay:10.37,2013-01-17 13:33:00,
2013-01-17 08:38:00,25.3,23.6,29.81,WNW,291,4.0,4.0,93,0.00,OVC,FEW,0.00,14.0,WeatherDisplay:10.37,2013-01-17 13:38:00,
2013-01-17 08:43:00,25.3,23.6,29.80,NW,305,4.0,4.0,93,0.00,OVC,FEW,0.00,14.0,WeatherDisplay:10.37,2013-01-17 13:43:00,
2013-01-17 08:48:00,25.3,23.6,29.81,SSE,167,3.5,3.5,93,0.00,OVC,FEW,0.00,16.0,WeatherDisplay:10.37,2013-01-17 13:48:00,
2013-01-17 08:53:00,25.3,23.6,29.81,SSW,200,3.5,3.5,93,0.00,OVC,FEW,0.00,23.0,WeatherDisplay:10.37,2013-01-17 13:53:00,
2013-01-17 08:58:00,25.2,23.7,29.81,NE,53,4.6,4.6,94,0.00,OVC,FEW,0.00,19.0,WeatherDisplay:10.37,2013-01-17 13:58:00,
2013-01-17 09:03:00,25.0,23.5,29.81,NE,48,9.2,9.2,94,0.00,-SN,FEW,0.00,23.0,WeatherDisplay:10.37,2013-01-17 14:03:00,
2013-01-17 09:08:00,24.8,23.3,29.82,WSW,248,6.0,6.0,94,0.00,-SN,FEW,0.00,30.0,WeatherDisplay:10.37,2013-01-17 14:08:00,
2013-01-17 09:13:00,24.7,23.2,29.83,NNE,21,6.0,6.0,94,0.00,-SN,FEW,0.00,37.0,WeatherDisplay:10.37,2013-01-17 14:13:00,
2013-01-17 09:18:00,24.6,23.1,29.82,NE,49,3.5,3.5,94,0.00,-SN,FEW,0.00,32.0,WeatherDisplay:10.37,2013-01-17 14:18:00,
2013-01-17 09:23:00,24.4,22.9,29.83,SW,231,3.5,3.5,94,0.00,-SN,FEW,0.00,44.0,WeatherDisplay:10.37,2013-01-17 14:23:00,
2013-01-17 09:28:00,24.1,22.4,29.83,NE,35,12.0,12.0,93,0.00,-SN,FEW,0.00,39.0,WeatherDisplay:10.37,2013-01-17 14:28:00,
2013-01-17 09:33:00,23.6,21.6,29.84,ESE,103,2.3,2.3,92,0.00,-SN,FEW,0.00,37.0,WeatherDisplay:10.37,2013-01-17 14:33:00,
2013-01-17 09:38:00,22.9,20.7,29.85,NNW,347,10.0,10.0,91,0.00,-SN,FEW,0.00,33.0,WeatherDisplay:10.37,2013-01-17 14:38:00,
2013-01-17 09:43:00,22.2,20.0,29.85,North,360,6.0,6.0,91,0.00,-SN,FEW,0.00,51.0,WeatherDisplay:10.37,2013-01-17 14:43:00,
2013-01-17 09:48:00,21.5,19.0,29.86,West,259,10.0,10.0,90,0.00,-SN,FEW,0.00,84.0,WeatherDisplay:10.37,2013-01-17 14:48:00,
2013-01-17 09:53:00,21.1,18.6,29.86,WNW,298,5.8,5.8,90,0.00,-SN,FEW,0.00,62.0,WeatherDisplay:10.37,2013-01-17 14:53:00,
2013-01-17 09:58:00,20.6,18.1,29.86,North,350,5.0,5.0,90,0.00,-SN,FEW,0.00,86.0,WeatherDisplay:10.37,2013-01-17 14:58:00,
2013-01-17 10:03:00,20.4,18.2,29.87,NE,36,3.0,3.0,91,0.00,-SN,FEW,0.00,54.0,WeatherDisplay:10.37,2013-01-17 15:03:00,
2013-01-17 10:08:00,20.1,17.4,29.86,NNE,30,10.0,10.0,89,0.00,-SN,FEW,0.00,56.0,WeatherDisplay:10.37,2013-01-17 15:08:00,
2013-01-17 10:13:00,19.8,17.3,29.86,NE,53,4.0,4.0,90,0.00,-SN,FEW,0.00,63.0,WeatherDisplay:10.37,2013-01-17 15:13:00,
2013-01-17 10:18:00,19.6,16.9,29.87,NNW,346,11.0,11.0,89,0.00,-SN,FEW,0.00,42.0,WeatherDisplay:10.37,2013-01-17 15:18:00,
2013-01-17 10:23:00,19.3,16.6,29.88,NW,307,7.0,7.0,89,0.00,-SN,FEW,0.00,33.0,WeatherDisplay:10.37,2013-01-17 15:23:00,
2013-01-17 10:28:00,18.8,15.8,29.88,West,279,8.1,8.1,88,0.00,-SN,FEW,0.00,65.0,WeatherDisplay:10.37,2013-01-17 15:28:00,
2013-01-17 10:33:00,18.5,15.5,29.87,South,171,10.0,10.0,88,0.00,OVC,FEW,0.00,56.0,WeatherDisplay:10.37,2013-01-17 15:33:00,
2013-01-17 10:38:00,18.3,15.6,29.88,ENE,65,4.0,4.0,89,0.00,OVC,FEW,0.00,79.0,WeatherDisplay:10.37,2013-01-17 15:38:00,
2013-01-17 10:43:00,18.2,15.8,29.88,SE,132,3.5,3.5,90,0.00,OVC,FEW,0.00,74.0,WeatherDisplay:10.37,2013-01-17 15:43:00,
2013-01-17 10:48:00,18.3,15.3,29.89,ESE,123,2.3,2.3,88,0.00,-SN,FEW,0.00,74.0,WeatherDisplay:10.37,2013-01-17 15:48:00,
2013-01-17 10:53:00,18.1,15.1,29.89,NW,304,10.0,10.0,88,0.00,-SN,FEW,0.00,67.0,WeatherDisplay:10.37,2013-01-17 15:53:00,
2013-01-17 10:58:00,17.9,14.9,29.89,East,101,3.5,3.5,88,0.00,-SN,FEW,0.00,65.0,WeatherDisplay:10.37,2013-01-17 15:58:00,
2013-01-17 11:03:00,17.8,14.6,29.89,WSW,249,6.0,6.0,87,0.00,-SN,FEW,0.00,44.0,WeatherDisplay:10.37,2013-01-17 16:03:00,
2013-01-17 11:08:00,17.6,14.4,29.90,WNW,298,5.0,5.0,87,0.00,-SN,FEW,0.00,39.0,WeatherDisplay:10.37,2013-01-17 16:08:00,
2013-01-17 11:13:00,17.1,13.6,29.89,NNW,336,4.6,4.6,86,0.00,-SN,FEW,0.00,120.0,WeatherDisplay:10.37,2013-01-17 16:13:00,
2013-01-17 11:18:00,16.6,12.9,29.90,NNW,337,5.0,5.0,85,0.00,-SN,FEW,0.00,100.0,WeatherDisplay:10.37,2013-01-17 16:18:00,
2013-01-17 11:23:00,16.3,12.8,29.91,SSE,151,3.5,3.5,86,0.00,-SN,FEW,0.00,116.0,WeatherDisplay:10.37,2013-01-17 16:23:00,
2013-01-17 11:28:00,15.7,11.7,29.91,NNE,33,6.9,6.9,84,0.00,-SN,FEW,0.00,105.0,WeatherDisplay:10.37,2013-01-17 16:28:00,
2013-01-17 11:33:00,15.1,11.1,29.92,ENE,63,9.2,9.2,84,0.00,-SN,FEW,0.00,128.0,WeatherDisplay:10.37,2013-01-17 16:33:00,
2013-01-17 11:39:00,14.6,10.9,29.92,NW,314,6.9,6.9,85,0.00,-SN,FEW,0.00,120.0,WeatherDisplay:10.37,2013-01-17 16:39:00,
2013-01-17 11:44:00,14.3,10.4,29.93,NNE,21,4.6,4.6,84,0.00,-SN,FEW,0.00,111.0,WeatherDisplay:10.37,2013-01-17 16:44:00,
2013-01-17 11:49:00,13.9,10.2,29.93,NW,311,2.3,2.3,85,0.00,OVC,FEW,0.00,127.0,WeatherDisplay:10.37,2013-01-17 16:49:00,
2013-01-17 11:54:00,13.7,10.0,29.94,NNE,26,4.0,4.0,85,0.00,OVC,FEW,0.00,130.0,WeatherDisplay:10.37,2013-01-17 16:54:00,
2013-01-17 11:59:00,13.5,9.8,29.95,SSE,164,1.1,0.0,85,0.00,OVC,FEW,0.00,137.0,WeatherDisplay:10.37,2013-01-17 16:59:00,
2013-01-17 12:04:00,13.3,9.4,29.95,ESE,117,2.3,0.0,84,0.00,OVC,FEW,0.00,192.0,WeatherDisplay:10.37,2013-01-17 17:04:00,
2013-01-17 12:09:00,13.1,9.2,29.95,WSW,254,4.0,4.0,84,0.00,OVC,FEW,0.00,188.0,WeatherDisplay:10.37,2013-01-17 17:09:00,
2013-01-17 12:14:00,12.9,8.7,29.96,NW,319,4.0,4.0,83,0.00,OVC,FEW,0.00,221.0,WeatherDisplay:10.37,2013-01-17 17:14:00,
2013-01-17 12:19:00,12.7,8.5,29.95,North,355,3.5,3.5,83,0.00,OVC,FEW,0.00,285.0,WeatherDisplay:10.37,2013-01-17 17:19:00,
2013-01-17 12:24:00,12.6,8.4,29.95,WNW,302,5.0,5.0,83,0.00,OVC,FEW,0.00,313.0,WeatherDisplay:10.37,2013-01-17 17:24:00,
2013-01-17 12:29:00,12.9,9.0,29.95,NNE,13,3.5,3.5,84,0.00,OVC,FEW,0.00,371.0,WeatherDisplay:10.37,2013-01-17 17:29:00,
2013-01-17 12:34:00,13.4,11.5,29.95,ENE,66,4.0,4.0,92,0.00,OVC,FEW,0.00,274.0,WeatherDisplay:10.37,2013-01-17 17:34:00,
2013-01-17 12:39:00,13.3,8.6,29.96,WNW,292,11.5,11.5,81,0.00,OVC,FEW,0.00,265.0,WeatherDisplay:10.37,2013-01-17 17:39:00,
2013-01-17 12:44:00,13.9,9.7,29.96,NW,306,3.5,3.5,83,0.00,OVC,FEW,0.00,591.0,WeatherDisplay:10.37,2013-01-17 17:44:00,
2013-01-17 12:49:00,14.3,9.3,29.97,SE,128,2.3,2.3,80,0.00,OVC,FEW,0.00,557.0,WeatherDisplay:10.37,2013-01-17 17:49:00,
2013-01-17 12:54:00,14.3,9.3,29.96,NE,34,7.0,7.0,80,0.00,OVC,FEW,0.00,584.0,WeatherDisplay:10.37,2013-01-17 17:54:00,
2013-01-17 12:59:00,14.2,9.2,29.96,SSW,194,4.0,4.0,80,0.00,OVC,FEW,0.00,543.0,WeatherDisplay:10.37,2013-01-17 17:59:00,
2013-01-17 13:04:00,13.9,8.3,29.97,ESE,119,3.5,3.5,78,0.00,OVC,FEW,0.00,693.0,WeatherDisplay:10.37,2013-01-17 18:04:00,
2013-01-17 13:09:00,13.9,8.3,29.96,ENE,71,4.0,4.0,78,0.00,OVC,FEW,0.00,545.0,WeatherDisplay:10.37,2013-01-17 18:09:00,
2013-01-17 13:14:00,13.2,6.8,29.97,WSW,244,6.9,6.9,75,0.00,OVC,FEW,0.00,462.0,WeatherDisplay:10.37,2013-01-17 18:14:00,
2013-01-17 13:19:00,12.5,6.7,29.97,East,94,3.5,3.5,77,0.00,OVC,FEW,0.00,100.0,WeatherDisplay:10.37,2013-01-17 18:19:00,
2013-01-17 13:24:00,12.0,5.3,29.97,SSW,196,5.0,5.0,74,0.00,OVC,FEW,0.00,128.0,WeatherDisplay:10.37,2013-01-17 18:24:00,
2013-01-17 13:29:00,10.8,4.1,29.98,North,355,9.0,9.0,74,0.00,OVC,FEW,0.00,457.0,WeatherDisplay:10.37,2013-01-17 18:29:00,
2013-01-17 13:34:00,9.9,3.3,29.99,NW,313,3.5,3.5,74,0.00,OVC,FEW,0.00,139.0,WeatherDisplay:10.37,2013-01-17 18:34:00,
2013-01-17 13:39:00,9.4,2.8,29.99,NNE,31,6.9,6.9,74,0.00,OVC,FEW,0.00,104.0,WeatherDisplay:10.37,2013-01-17 18:39:00,
2013-01-17 13:44:00,9.3,2.7,29.99,SSW,202,3.5,3.5,74,0.00,OVC,FEW,0.00,364.0,WeatherDisplay:10.37,2013-01-17 18:44:00,
2013-01-17 13:49:00,9.3,3.0,30.00,NE,56,3.5,3.5,75,0.00,OVC,FEW,0.00,113.0,WeatherDisplay:10.37,2013-01-17 18:49:00,
2013-01-17 13:54:00,9.4,2.8,30.00,North,360,6.9,6.9,74,0.00,OVC,FEW,0.00,439.0,WeatherDisplay:10.37,2013-01-17 18:54:00,
2013-01-17 13:59:00,9.9,3.0,29.99,ENE,66,5.0,5.0,73,0.00,OVC,FEW,0.00,403.0,WeatherDisplay:10.37,2013-01-17 18:59:00,
2013-01-17 14:04:00,10.0,2.2,30.00,WSW,252,4.0,4.0,70,0.00,CLR,FEW,0.00,374.0,WeatherDisplay:10.37,2013-01-17 19:04:00,
2013-01-17 14:09:00,9.7,1.6,30.01,West,265,5.0,5.0,69,0.00,CLR,FEW,0.00,323.0,WeatherDisplay:10.37,2013-01-17 19:09:00,
2013-01-17 14:14:00,9.6,1.8,30.01,NNW,347,7.0,7.0,70,0.00,CLR,FEW,0.00,329.0,WeatherDisplay:10.37,2013-01-17 19:14:00,
2013-01-17 14:19:00,9.4,1.3,30.00,ENE,77,2.3,2.3,69,0.00,CLR,FEW,0.00,330.0,WeatherDisplay:10.37,2013-01-17 19:19:00,
2013-01-17 14:24:00,9.3,1.2,30.01,NE,51,10.4,10.4,69,0.00,CLR,FEW,0.00,281.0,WeatherDisplay:10.37,2013-01-17 19:24:00,
2013-01-17 14:29:00,8.6,0.2,30.02,NNE,22,9.2,9.2,68,0.00,CLR,FEW,0.00,281.0,WeatherDisplay:10.37,2013-01-17 19:29:00,
2013-01-17 14:34:00,7.9,0.1,30.02,WNW,285,4.0,4.0,70,0.00,CLR,FEW,0.00,281.0,WeatherDisplay:10.37,2013-01-17 19:34:00,
2013-01-17 14:39:00,7.6,0.2,30.02,WNW,298,3.5,3.5,71,0.00,CLR,FEW,0.00,181.0,WeatherDisplay:10.37,2013-01-17 19:39:00,
2013-01-17 14:44:00,7.4,-0.3,30.02,NE,44,5.0,5.0,70,0.00,CLR,FEW,0.00,225.0,WeatherDisplay:10.37,2013-01-17 19:44:00,
2013-01-17 14:49:00,7.3,0.2,30.03,NE,55,2.3,2.3,72,0.00,CLR,FEW,0.00,279.0,WeatherDisplay:10.37,2013-01-17 19:49:00,
2013-01-17 14:54:00,7.3,-0.1,30.03,NNE,19,2.3,2.3,71,0.00,CLR,FEW,0.00,253.0,WeatherDisplay:10.37,2013-01-17 19:54:00,
2013-01-17 14:59:00,7.2,-0.5,30.03,NNE,30,5.0,5.0,70,0.00,CLR,FEW,0.00,230.0,WeatherDisplay:10.37,2013-01-17 19:59:00,
2013-01-17 15:04:00,7.0,-0.7,30.03,NW,314,3.5,3.5,70,0.00,CLR,FEW,0.00,151.0,WeatherDisplay:10.37,2013-01-17 20:04:00,
2013-01-17 15:09:00,6.9,-0.5,30.03,ENE,62,1.1,1.1,71,0.00,CLR,FEW,0.00,97.0,WeatherDisplay:10.37,2013-01-17 20:09:00,
2013-01-17 15:14:00,6.6,-1.1,30.02,NE,53,5.0,5.0,70,0.00,CLR,FEW,0.00,37.0,WeatherDisplay:10.37,2013-01-17 20:14:00,
2013-01-17 15:19:00,6.1,-1.6,30.03,WNW,284,2.3,2.3,70,0.00,CLR,FEW,0.00,77.0,WeatherDisplay:10.37,2013-01-17 20:19:00,
2013-01-17 15:24:00,5.7,-2.0,30.03,North,355,5.8,5.8,70,0.00,CLR,FEW,0.00,32.0,WeatherDisplay:10.37,2013-01-17 20:24:00,
2013-01-17 15:29:00,5.3,-2.4,30.03,NNW,344,0.0,0.0,70,0.00,CLR,FEW,0.00,26.0,WeatherDisplay:10.37,2013-01-17 20:29:00,
2013-01-17 15:34:00,4.9,-2.7,30.03,ENE,70,2.0,2.0,70,0.00,CLR,FEW,0.00,25.0,WeatherDisplay:10.37,2013-01-17 20:34:00,
2013-01-17 15:39:00,4.7,-2.6,30.04,NNE,15,4.0,4.0,71,0.00,CLR,FEW,0.00,23.0,WeatherDisplay:10.37,2013-01-17 20:39:00,
2013-01-17 15:44:00,4.4,-2.9,30.04,NW,315,2.0,2.0,71,0.00,CLR,FEW,0.00,21.0,WeatherDisplay:10.37,2013-01-17 20:44:00,
2013-01-17 15:49:00,4.1,-3.2,30.04,NW,309,5.0,5.0,71,0.00,CLR,FEW,0.00,19.0,WeatherDisplay:10.37,2013-01-17 20:49:00,
2013-01-17 15:54:00,3.9,-3.1,30.04,WNW,300,5.0,5.0,72,0.00,CLR,FEW,0.00,18.0,WeatherDisplay:10.37,2013-01-17 20:54:00,
2013-01-17 15:59:00,3.6,-3.7,30.04,NE,49,0.0,0.0,71,0.00,CLR,FEW,0.00,16.0,WeatherDisplay:10.37,2013-01-17 20:59:00,
2013-01-17 16:04:00,3.5,-3.8,30.04,NW,317,4.0,4.0,71,0.00,CLR,FEW,0.00,12.0,WeatherDisplay:10.37,2013-01-17 21:04:00,
2013-01-17 16:09:00,3.2,-3.8,30.05,East,82,3.0,3.0,72,0.00,CLR,FEW,0.00,11.0,WeatherDisplay:10.37,2013-01-17 21:09:00,
2013-01-17 16:14:00,3.0,-4.0,30.05,East,92,0.0,0.0,72,0.00,CLR,FEW,0.00,9.0,WeatherDisplay:10.37,2013-01-17 21:14:00,
2013-01-17 16:19:00,2.6,-4.1,30.05,ENE,67,3.5,0.0,73,0.00,CLR,FEW,0.00,7.0,WeatherDisplay:10.37,2013-01-17 21:19:00,
2013-01-17 16:24:00,2.3,-4.7,30.05,NNW,348,4.6,4.6,72,0.00,CLR,FEW,0.00,5.0,WeatherDisplay:10.37,2013-01-17 21:24:00,
2013-01-17 16:29:00,2.1,-4.9,30.06,West,265,1.1,0.0,72,0.00,CLR,FEW,0.00,0.0,WeatherDisplay:10.37,2013-01-17 21:29:00,
2013-01-17 16:34:00,1.8,-5.2,30.06,West,265,0.0,0.0,72,0.00,CLR,FEW,0.00,0.0,WeatherDisplay:10.37,2013-01-17 21:34:00,
2013-01-17 16:39:00,1.6,-5.3,30.07,North,5,1.1,1.1,72,0.00,CLR,FEW,0.00,0.0,WeatherDisplay:10.37,2013-01-17 21:39:00,
2013-01-17 16:44:00,1.3,-5.1,30.06,North,5,0.0,0.0,74,0.00,CLR,FEW,0.00,0.0,WeatherDisplay:10.37,2013-01-17 21:44:00,
2013-01-17 16:49:00,1.0,-5.4,30.06,North,5,0.0,0.0,74,0.00,CLR,FEW,0.00,0.0,WeatherDisplay:10.37,2013-01-17 21:49:00,
2013-01-17 16:54:00,0.7,-5.6,30.06,North,5,0.0,0.0,74,0.00,CLR,FEW,0.00,0.0,WeatherDisplay:10.37,2013-01-17 21:54:00,
2013-01-17 16:59:00,0.5,-5.8,30.07,North,5,0.0,0.0,74,0.00,CLR,FEW,0.00,0.0,WeatherDisplay:10.37,2013-01-17 21:59:00,
2013-01-17 17:04:00,0.3,-5.8,30.07,North,5,0.0,0.0,75,0.00,CLR,FEW,0.00,0.0,WeatherDisplay:10.37,2013-01-17 22:04:00,
2013-01-17 17:09:00,0.1,-5.7,30.07,North,5,0.0,0.0,76,0.00,CLR,FEW,0.00,0.0,WeatherDisplay:10.37,2013-01-17 22:09:00,
2013-01-17 17:14:00,-0.1,-5.6,30.08,North,5,0.0,0.0,77,0.00,CLR,FEW,0.00,0.0,WeatherDisplay:10.37,2013-01-17 22:14:00,
2013-01-17 17:19:00,-0.5,-6.3,30.08,North,360,0.0,0.0,76,0.00,CLR,FEW,0.00,0.0,WeatherDisplay:10.37,2013-01-17 22:19:00,
2013-01-17 17:24:00,-0.6,-6.6,30.08,North,351,0.0,0.0,75,0.00,CLR,FEW,0.00,0.0,WeatherDisplay:10.37,2013-01-17 22:24:00,
2013-01-17 17:29:00,-0.9,-6.9,30.08,North,360,0.0,0.0,75,0.00,CLR,FEW,0.00,0.0,WeatherDisplay:10.37,2013-01-17 22:29:00,
2013-01-17 17:34:00,-1.1,-6.8,30.08,North,360,0.0,0.0,76,0.00,CLR,FEW,0.00,0.0,WeatherDisplay:10.37,2013-01-17 22:34:00,
2013-01-17 17:39:00,-1.4,-6.6,30.08,North,360,0.0,0.0,78,0.00,CLR,FEW,0.00,0.0,WeatherDisplay:10.37,2013-01-17 22:39:00,
2013-01-17 17:44:00,-1.5,-6.4,30.09,North,360,0.0,0.0,79,0.00,CLR,FEW,0.00,0.0,WeatherDisplay:10.37,2013-01-17 22:44:00,
2013-01-17 17:49:00,-1.7,-6.4,30.09,North,360,0.0,0.0,80,0.00,CLR,FEW,0.00,0.0,WeatherDisplay:10.37,2013-01-17 22:49:00,
2013-01-17 17:54:00,-1.8,-7.0,30.09,NE,40,1.1,0.0,78,0.00,CLR,FEW,0.00,0.0,WeatherDisplay:10.37,2013-01-17 22:54:00,
2013-01-17 17:59:00,-1.8,-7.0,30.09,NE,40,0.0,0.0,78,0.00,CLR,FEW,0.00,0.0,WeatherDisplay:10.37,2013-01-17 22:59:00,
2013-01-17 18:04:00,-1.9,-7.3,30.09,NE,41,1.1,0.0,77,0.00,CLR,FEW,0.00,0.0,WeatherDisplay:10.37,2013-01-17 23:04:00,
2013-01-17 18:09:00,-2.0,-7.4,30.10,NE,53,0.0,0.0,77,0.00,CLR,FEW,0.00,0.0,WeatherDisplay:10.37,2013-01-17 23:09:00,
2013-01-17 18:14:00,-2.2,-7.6,30.10,ENE,71,1.1,1.1,77,0.00,CLR,FEW,0.00,0.0,WeatherDisplay:10.37,2013-01-17 23:14:00,
2013-01-17 18:19:00,-2.5,-7.9,30.11,ENE,71,0.0,0.0,77,0.00,CLR,FEW,0.00,0.0,WeatherDisplay:10.37,2013-01-17 23:19:00,
2013-01-17 18:24:00,-2.6,-7.8,30.11,ENE,71,0.0,0.0,78,0.00,CLR,FEW,0.00,0.0,WeatherDisplay:10.37,2013-01-17 23:24:00,
2013-01-17 18:29:00,-2.7,-7.6,30.11,ENE,71,0.0,0.0,79,0.00,CLR,FEW,0.00,0.0,WeatherDisplay:10.37,2013-01-17 23:29:00,
2013-01-17 18:34:00,-2.7,-7.9,30.11,ENE,71,0.0,0.0,78,0.00,CLR,FEW,0.00,0.0,WeatherDisplay:10.37,2013-01-17 23:34:00,
2013-01-17 18:39:00,-2.7,-8.1,30.11,ENE,71,0.0,0.0,77,0.00,CLR,FEW,0.00,0.0,WeatherDisplay:10.37,2013-01-17 23:39:00,
2013-01-17 18:44:00,-2.7,-8.1,30.11,ENE,71,0.0,0.0,77,0.00,CLR,FEW,0.00,0.0,WeatherDisplay:10.37,2013-01-17 23:44:00,
2013-01-17 18:49:00,-2.8,-8.2,30.11,ENE,71,0.0,0.0,77,0.00,CLR,FEW,0.00,0.0,WeatherDisplay:10.37,2013-01-17 23:49:00,
2013-01-17 18:54:00,-2.6,-7.5,30.11,ENE,71,0.0,0.0,79,0.00,CLR,FEW,0.00,0.0,WeatherDisplay:10.37,2013-01-17 23:54:00,
2013-01-17 18:59:00,-2.5,-7.1,30.11,ENE,71,0.0,0.0,80,0.00,CLR,FEW,0.00,0.0,WeatherDisplay:10.37,2013-01-17 23:59:00,
2013-01-17 19:04:00,-2.6,-7.2,30.11,ENE,71,0.0,0.0,80,0.00,CLR,FEW,0.00,0.0,WeatherDisplay:10.37,2013-01-18 00:04:00,
2013-01-17 19:10:00,-2.5,-7.1,30.12,ENE,71,0.0,0.0,80,0.00,CLR,FEW,0.00,0.0,WeatherDisplay:10.37,2013-01-18 00:10:00,
2013-01-17 19:15:00,-2.4,-7.1,30.12,ENE,71,0.0,0.0,80,0.00,CLR,FEW,0.00,0.0,WeatherDisplay:10.37,2013-01-18 00:15:00,
2013-01-17 19:20:00,-2.3,-7.0,30.12,ENE,71,0.0,0.0,80,0.00,CLR,FEW,0.00,0.0,WeatherDisplay:10.37,2013-01-18 00:20:00,
2013-01-17 19:25:00,-2.2,-7.1,30.12,ENE,71,0.0,0.0,79,0.00,CLR,FEW,0.00,0.0,WeatherDisplay:10.37,2013-01-18 00:25:00,
2013-01-17 19:30:00,-2.1,-7.0,30.12,ENE,71,0.0,0.0,79,0.00,CLR,FEW,0.00,0.0,WeatherDisplay:10.37,2013-01-18 00:30:00,
2013-01-17 19:35:00,-2.1,-7.3,30.13,ENE,71,0.0,0.0,78,0.00,CLR,FEW,0.00,0.0,WeatherDisplay:10.37,2013-01-18 00:35:00,
2013-01-17 19:40:00,-2.1,-7.3,30.13,ENE,71,0.0,0.0,78,0.00,CLR,FEW,0.00,0.0,WeatherDisplay:10.37,2013-01-18 00:40:00,
2013-01-17 19:45:00,-2.2,-7.6,30.12,ENE,71,0.0,0.0,77,0.00,CLR,FEW,0.00,0.0,WeatherDisplay:10.37,2013-01-18 00:45:00,
2013-01-17 19:50:00,-2.3,-7.7,30.12,ENE,71,0.0,0.0,77,0.00,CLR,FEW,0.00,0.0,WeatherDisplay:10.37,2013-01-18 00:50:00,
2013-01-17 19:55:00,-2.4,-7.8,30.12,ENE,71,0.0,0.0,77,0.00,CLR,FEW,0.00,0.0,WeatherDisplay:10.37,2013-01-18 00:55:00,
2013-01-17 20:00:00,-2.4,-7.6,30.12,ENE,71,0.0,0.0,78,0.00,CLR,FEW,0.00,0.0,WeatherDisplay:10.37,2013-01-18 01:00:00,
2013-01-17 20:05:00,-2.4,-7.8,30.12,ENE,71,0.0,0.0,77,0.00,CLR,FEW,0.00,0.0,WeatherDisplay:10.37,2013-01-18 01:05:00,
2013-01-17 20:10:00,-2.5,-7.9,30.12,ENE,71,0.0,0.0,77,0.00,CLR,FEW,0.00,0.0,WeatherDisplay:10.37,2013-01-18 01:10:00,
2013-01-17 20:15:00,-2.6,-7.8,30.13,ENE,71,0.0,0.0,78,0.00,CLR,FEW,0.00,0.0,WeatherDisplay:10.37,2013-01-18 01:15:00,
2013-01-17 20:20:00,-2.7,-7.9,30.14,ENE,71,0.0,0.0,78,0.00,CLR,FEW,0.00,0.0,WeatherDisplay:10.37,2013-01-18 01:20:00,
2013-01-17 20:25:00,-2.8,-7.7,30.13,ENE,71,0.0,0.0,79,0.00,CLR,FEW,0.00,0.0,WeatherDisplay:10.37,2013-01-18 01:25:00,
2013-01-17 20:30:00,-2.8,-7.4,30.13,ENE,71,0.0,0.0,80,0.00,CLR,FEW,0.00,0.0,WeatherDisplay:10.37,2013-01-18 01:30:00,
2013-01-17 20:35:00,-2.8,-7.4,30.14,ENE,71,0.0,0.0,80,0.00,CLR,FEW,0.00,0.0,WeatherDisplay:10.37,2013-01-18 01:35:00,
2013-01-17 20:40:00,-2.8,-7.4,30.14,ENE,71,0.0,0.0,80,0.00,CLR,FEW,0.00,0.0,WeatherDisplay:10.37,2013-01-18 01:40:00,
2013-01-17 20:45:00,-2.8,-7.4,30.14,ENE,71,0.0,0.0,80,0.00,CLR,FEW,0.00,0.0,WeatherDisplay:10.37,2013-01-18 01:45:00,
2013-01-17 20:50:00,-2.8,-7.7,30.15,ENE,71,0.0,0.0,79,0.00,CLR,FEW,0.00,0.0,WeatherDisplay:10.37,2013-01-18 01:50:00,
2013-01-17 20:55:00,-2.9,-7.8,30.14,ENE,71,0.0,0.0,79,0.00,CLR,FEW,0.00,0.0,WeatherDisplay:10.37,2013-01-18 01:55:00,
2013-01-17 21:00:00,-2.9,-7.8,30.15,ENE,71,0.0,0.0,79,0.00,CLR,FEW,0.00,0.0,WeatherDisplay:10.37,2013-01-18 02:00:00,
2013-01-17 21:05:00,-3.0,-7.9,30.14,ENE,71,0.0,0.0,79,0.00,CLR,FEW,0.00,0.0,WeatherDisplay:10.37,2013-01-18 02:05:00,
2013-01-17 21:10:00,-3.1,-8.0,30.14,ENE,71,0.0,0.0,79,0.00,CLR,FEW,0.00,0.0,WeatherDisplay:10.37,2013-01-18 02:10:00,
2013-01-17 21:15:00,-3.2,-8.1,30.14,ENE,71,0.0,0.0,79,0.00,CLR,FEW,0.00,0.0,WeatherDisplay:10.37,2013-01-18 02:15:00,
2013-01-17 21:20:00,-3.4,-8.3,30.13,ENE,71,0.0,0.0,79,0.00,CLR,FEW,0.00,0.0,WeatherDisplay:10.37,2013-01-18 02:20:00,
2013-01-17 21:25:00,-3.5,-8.6,30.12,ENE,71,0.0,0.0,78,0.00,CLR,FEW,0.00,0.0,WeatherDisplay:10.37,2013-01-18 02:25:00,
2013-01-17 21:30:00,-3.5,-8.4,30.12,ENE,71,0.0,0.0,79,0.00,CLR,FEW,0.00,0.0,WeatherDisplay:10.37,2013-01-18 02:30:00,
2013-01-17 21:35:00,-3.6,-8.7,30.13,ENE,71,0.0,0.0,78,0.00,CLR,FEW,0.00,0.0,WeatherDisplay:10.37,2013-01-18 02:35:00,
2013-01-17 21:40:00,-3.7,-9.1,30.13,ENE,71,0.0,0.0,77,0.00,CLR,FEW,0.00,0.0,WeatherDisplay:10.37,2013-01-18 02:40:00,
2013-01-17 21:45:00,-3.8,-8.9,30.12,ENE,71,0.0,0.0,78,0.00,CLR,FEW,0.00,0.0,WeatherDisplay:10.37,2013-01-18 02:45:00,
2013-01-17 21:50:00,-4.0,-9.1,30.13,ENE,71,0.0,0.0,78,0.00,CLR,FEW,0.00,0.0,WeatherDisplay:10.37,2013-01-18 02:50:00,
2013-01-17 21:55:00,-4.1,-9.0,30.12,ENE,71,0.0,0.0,79,0.00,CLR,FEW,0.00,0.0,WeatherDisplay:10.37,2013-01-18 02:55:00,
2013-01-17 22:00:00,-4.2,-9.1,30.12,ENE,71,0.0,0.0,79,0.00,CLR,FEW,0.00,0.0,WeatherDisplay:10.37,2013-01-18 03:00:00,
2013-01-17 22:05:00,-4.3,-9.2,30.11,ENE,71,0.0,0.0,79,0.00,CLR,FEW,0.00,0.0,WeatherDisplay:10.37,2013-01-18 03:05:00,
2013-01-17 22:10:00,-4.3,-8.9,30.11,ENE,71,0.0,0.0,80,0.00,CLR,FEW,0.00,0.0,WeatherDisplay:10.37,2013-01-18 03:10:00,
2013-01-17 22:15:00,-4.3,-8.9,30.11,ENE,71,0.0,0.0,80,0.00,CLR,FEW,0.00,0.0,WeatherDisplay:10.37,2013-01-18 03:15:00,
2013-01-17 22:20:00,-4.3,-8.9,30.12,ENE,71,0.0,0.0,80,0.00,CLR,FEW,0.00,0.0,WeatherDisplay:10.37,2013-01-18 03:20:00,
2013-01-17 22:25:00,-4.3,-8.9,30.11,ENE,71,0.0,0.0,80,0.00,CLR,FEW,0.00,0.0,WeatherDisplay:10.37,2013-01-18 03:25:00,
2013-01-17 22:30:00,-4.5,-9.4,30.10,ENE,71,0.0,0.0,79,0.00,CLR,FEW,0.00,0.0,WeatherDisplay:10.37,2013-01-18 03:30:00,
2013-01-17 22:35:00,-4.7,-9.3,30.10,ENE,71,0.0,0.0,80,0.00,CLR,FEW,0.00,0.0,WeatherDisplay:10.37,2013-01-18 03:35:00,
2013-01-17 22:40:00,-4.7,-9.0,30.11,ENE,71,0.0,0.0,81,0.00,CLR,FEW,0.00,0.0,WeatherDisplay:10.37,2013-01-18 03:40:00,
2013-01-17 22:45:00,-4.7,-9.0,30.11,ENE,71,0.0,0.0,81,0.00,CLR,FEW,0.00,0.0,WeatherDisplay:10.37,2013-01-18 03:45:00,
2013-01-17 22:50:00,-4.6,-8.9,30.11,ENE,71,0.0,0.0,81,0.00,CLR,FEW,0.00,0.0,WeatherDisplay:10.37,2013-01-18 03:50:00,
2013-01-17 22:55:00,-4.5,-8.8,30.11,ENE,71,0.0,0.0,81,0.00,CLR,FEW,0.00,0.0,WeatherDisplay:10.37,2013-01-18 03:55:00,
2013-01-17 23:00:00,-4.5,-8.6,30.12,ENE,71,0.0,0.0,82,0.00,CLR,FEW,0.00,0.0,WeatherDisplay:10.37,2013-01-18 04:00:00,
2013-01-17 23:05:00,-4.5,-8.8,30.11,ENE,71,0.0,0.0,81,0.00,CLR,FEW,0.00,0.0,WeatherDisplay:10.37,2013-01-18 04:05:00,
2013-01-17 23:10:00,-4.6,-8.9,30.11,ENE,71,0.0,0.0,81,0.00,CLR,FEW,0.00,0.0,WeatherDisplay:10.37,2013-01-18 04:10:00,
2013-01-17 23:15:00,-4.5,-8.8,30.11,ENE,71,0.0,0.0,81,0.00,CLR,FEW,0.00,0.0,WeatherDisplay:10.37,2013-01-18 04:15:00,
2013-01-17 23:20:00,-4.5,-8.8,30.11,ENE,71,0.0,0.0,81,0.00,CLR,FEW,0.00,0.0,WeatherDisplay:10.37,2013-01-18 04:20:00,
2013-01-17 23:25:00,-4.5,-8.8,30.10,ENE,71,0.0,0.0,81,0.00,CLR,FEW,0.00,0.0,WeatherDisplay:10.37,2013-01-18 04:25:00,
2013-01-17 23:30:00,-4.4,-9.0,30.11,ENE,71,0.0,0.0,80,0.00,CLR,FEW,0.00,0.0,WeatherDisplay:10.37,2013-01-18 04:30:00,
2013-01-17 23:35:00,-4.4,-8.8,30.11,ENE,71,0.0,0.0,81,0.00,CLR,FEW,0.00,0.0,WeatherDisplay:10.37,2013-01-18 04:35:00,
2013-01-17 23:40:00,-4.4,-8.8,30.10,ENE,71,0.0,0.0,81,0.00,CLR,FEW,0.00,0.0,WeatherDisplay:10.37,2013-01-18 04:40:00,
2013-01-17 23:45:00,-4.4,-8.8,30.11,ENE,71,0.0,0.0,81,0.00,CLR,FEW,0.00,0.0,WeatherDisplay:10.37,2013-01-18 04:45:00,
2013-01-17 23:51:00,-4.2,-8.6,30.11,ENE,71,0.0,0.0,81,0.00,CLR,FEW,0.00,0.0,WeatherDisplay:10.37,2013-01-18 04:51:00,
2013-01-17 23:56:00,-4.2,-8.8,30.12,ENE,71,0.0,0.0,80,0.00,CLR,FEW,0.00,0.0,WeatherDisplay:10.37,2013-01-18 04:56:00,